Location: St. Louis
(38.6270°N, 90.1994°W)
Time: 13:49:11
(UTC-06:00)

Vanguard 1 - Pass Details

Date: 05 December 2021
Orbit: 652 x 3830 km, 34.2° (Epoch: 19 January)

Event Time Altitude Azimuth Distance (km) Brightness Sun altitude
Rises 21:04:50 0° 208° (SSW) 6,149 14.3 -51.0°
Reaches altitude 10° 21:08:48 10° 200° (SSW) 5,525 13.9 -51.8°
Enters shadow 21:14:07 24° 186° (S) 4,901 13.4 -52.8°
Maximum altitude 21:25:03 40° 138° (SE) 4,623 - -54.9°
Drops below altitude 10° 21:45:19 10° 80° (E) 6,866 - -58.6°
Sets 21:50:55 0° 74° (ENE) 7,729 - -59.6°
